Location: *
(46.0770°N, 1.6444°E)
Time: 00:36:11
(UTC+00:00)

Cosmos 2263 Rocket - Pass Details

Date: 16 September 2019
Orbit: 824 x 848 km, 71.0° (Epoch: 19 October)

Event Time Altitude Azimuth Distance (km) Brightness Sun altitude
Exits shadow 23:39:56 21° 3° (N) 1,834 4.4 -41.4°
Drops below altitude 10° 23:41:55 10° 15° (NNE) 2,479 5.2 -41.5°
Sets 23:44:33 0° 23° (NNE) 3,416 6.1 -41.5°
